Zurück zum Katalog

COSMOS 1823 DEB

AktivLEO
NORAD 39824·DEBRIS·🇷🇺 Russia

Gestartet Feb 20, 1987 von Plesetsk Cosmodrome

Loading…

Nächste Überflüge (nächste 24 Stunden)

TLE

VeraltetSource: Space-Track

Epoche: Aug 29, 2026, 08:53 UTC

1 39824U 87020EY  26241.37067427  .00000134  00000-0  10478-2 0  9994
2 39824  73.6145 237.1114 0032492   6.0872  61.9492 12.46321090976243

Verfolge COSMOS 1823 DEB in Echtzeit mit AllMySat

Download on the App Store